When you browse on this site, cookies collect data to enhance your experience and personalize the content and advertising you see.
Visit our Privacy Policy to learn more. By continuing to use the site, you agree to this use of cookies and data.
  • In United Kingdom
  • List of Countries
  • For 7 days
  • Water Temperature
  • Satellite Maps
  • Weather Map
  • Weather Widgets
  • user-avatar
    Login

    Hourly Weather Springs Pain

    Today, 19 April, Friday

    Time Temperature Precipitation Wind Pressure Humidity
    00:00 +29°C° 1.3 mm 3 mps 758 mmHg 87%
    01:00 +29°C° 1.3 mm 3 mps 758 mmHg 88%
    02:00 +28°C° 1.3 mm 3 mps 757 mmHg 90%
    03:00 +28°C° 0.1 mm 3 mps 757 mmHg 91%
    04:00 +28°C° 0.1 mm 2 mps 757 mmHg 91%
    05:00 +28°C° 0 mm 2 mps 757 mmHg 91%
    06:00 +29°C° 0 mm 1 mps 758 mmHg 87%
    07:00 +30°C° 0 mm 1 mps 758 mmHg 83%
    08:00 +31°C° 0 mm 1 mps 758 mmHg 79%
    09:00 +32°C° 0.8 mm 1 mps 758 mmHg 75%
    10:00 +34°C° 0.8 mm 2 mps 758 mmHg 71%
    11:00 +34°C° 0 mm 2 mps 759 mmHg 69%
    12:00 +34°C° 0.9 mm 2 mps 758 mmHg 68%
    13:00 +34°C° 0.9 mm 3 mps 758 mmHg 67%
    14:00 +34°C° 0.9 mm 4 mps 757 mmHg 66%
    15:00 +33°C° 0 mm 3 mps 757 mmHg 69%
    16:00 +31°C° 0 mm 3 mps 757 mmHg 72%
    17:00 +30°C° 0 mm 3 mps 757 mmHg 75%
    18:00 +30°C° 0 mm 3 mps 757 mmHg 78%
    19:00 +29°C° 0 mm 3 mps 758 mmHg 81%
    20:00 +29°C° 0 mm 2 mps 758 mmHg 84%
    21:00 +29°C° 0 mm 2 mps 758 mmHg 85%
    22:00 +28°C° 0 mm 1 mps 758 mmHg 86%
    23:00 +28°C° 0 mm 1 mps 758 mmHg 86%

    Tomorrow, 20 April, Saturday

    Time Temperature Precipitation Wind Pressure Humidity
    00:00 +28°C° 0 mm 1 mps 758 mmHg 87%
    01:00 +28°C° 0 mm 1 mps 758 mmHg 88%
    02:00 +28°C° 0 mm 1 mps 757 mmHg 89%
    03:00 +28°C° 0 mm 1 mps 758 mmHg 89%
    04:00 +28°C° 0 mm 1 mps 758 mmHg 90%
    05:00 +25°C° 0 mm 0 mps 758 mmHg 90%
    06:00 +29°C° 0 mm 1 mps 758 mmHg 84%
    07:00 +30°C° 0 mm 1 mps 758 mmHg 78%
    08:00 +32°C° 0 mm 2 mps 759 mmHg 71%
    09:00 +34°C° 0 mm 2 mps 759 mmHg 67%
    10:00 +35°C° 0 mm 2 mps 759 mmHg 63%
    11:00 +36°C° 0 mm 2 mps 759 mmHg 58%
    12:00 +36°C° 0 mm 3 mps 758 mmHg 59%
    13:00 +35°C° 0 mm 3 mps 757 mmHg 59%
    14:00 +35°C° 0 mm 4 mps 756 mmHg 60%
    15:00 +34°C° 0 mm 4 mps 756 mmHg 64%
    16:00 +33°C° 0 mm 4 mps 756 mmHg 67%
    17:00 +33°C° 0 mm 4 mps 756 mmHg 71%
    18:00 +31°C° 0 mm 3 mps 757 mmHg 76%
    19:00 +30°C° 0 mm 3 mps 757 mmHg 80%
    20:00 +29°C° 0 mm 2 mps 758 mmHg 85%
    21:00 +29°C° 0 mm 2 mps 758 mmHg 86%
    22:00 +29°C° 0 mm 3 mps 758 mmHg 86%
    23:00 +28°C° 0 mm 3 mps 758 mmHg 87%

    Day after tomorrow, 21 April, Sunday

    Time Temperature Precipitation Wind Pressure Humidity
    00:00 +28°C° 0 mm 2 mps 758 mmHg 88%
    01:00 +28°C° 0 mm 2 mps 758 mmHg 90%
    02:00 +28°C° 0 mm 1 mps 757 mmHg 91%
    03:00 +28°C° 0 mm 1 mps 757 mmHg 91%
    04:00 +27°C° 0 mm 1 mps 757 mmHg 92%
    05:00 +27°C° 0 mm 1 mps 757 mmHg 92%
    06:00 +29°C° 0 mm 1 mps 757 mmHg 85%
    07:00 +30°C° 0 mm 1 mps 758 mmHg 78%
    08:00 +32°C° 0 mm 2 mps 758 mmHg 71%
    09:00 +35°C° 0 mm 2 mps 758 mmHg 64%
    10:00 +37°C° 0 mm 2 mps 758 mmHg 56%
    11:00 +38°C° 0 mm 2 mps 758 mmHg 49%
    12:00 +38°C° 0 mm 3 mps 757 mmHg 52%
    13:00 +37°C° 0 mm 3 mps 756 mmHg 54%
    14:00 +37°C° 0 mm 4 mps 755 mmHg 56%
    15:00 +36°C° 0 mm 4 mps 755 mmHg 61%
    16:00 +34°C° 0 mm 4 mps 755 mmHg 65%
    17:00 +33°C° 0 mm 4 mps 755 mmHg 69%
    18:00 +31°C° 0.6 mm 3 mps 755 mmHg 76%
    19:00 +30°C° 0.6 mm 3 mps 756 mmHg 82%
    20:00 +29°C° 0.6 mm 3 mps 757 mmHg 89%
    21:00 +29°C° 0 mm 3 mps 757 mmHg 90%
    22:00 +29°C° 0 mm 3 mps 757 mmHg 91%
    23:00 +28°C° 0 mm 3 mps 757 mmHg 92%

    22 April, Monday

    Time Temperature Precipitation Wind Pressure Humidity
    00:00 +28°C° 0 mm 3 mps 757 mmHg 92%
    01:00 +28°C° 0 mm 2 mps 756 mmHg 93%
    02:00 +28°C° 0 mm 2 mps 756 mmHg 93%
    03:00 +28°C° 0 mm 2 mps 756 mmHg 93%
    04:00 +28°C° 0 mm 2 mps 756 mmHg 93%
    05:00 +28°C° 0 mm 2 mps 756 mmHg 93%
    06:00 +29°C° 0.1 mm 2 mps 757 mmHg 89%
    07:00 +30°C° 0.1 mm 2 mps 757 mmHg 84%
    08:00 +31°C° 0.1 mm 2 mps 758 mmHg 79%
    09:00 +31°C° 0.2 mm 2 mps 758 mmHg 76%
    10:00 +33°C° 0.2 mm 3 mps 758 mmHg 74%
    11:00 +34°C° 0.2 mm 3 mps 758 mmHg 71%
    12:00 +34°C° 0.4 mm 3 mps 757 mmHg 70%
    13:00 +34°C° 0.4 mm 4 mps 756 mmHg 70%
    14:00 +34°C° 0.4 mm 4 mps 755 mmHg 69%
    15:00 +33°C° 0.5 mm 4 mps 755 mmHg 74%
    16:00 +32°C° 0.5 mm 4 mps 755 mmHg 78%
    17:00 +30°C° 0.5 mm 3 mps 755 mmHg 83%
    18:00 +30°C° 0 mm 3 mps 755 mmHg 86%
    19:00 +29°C° 0 mm 3 mps 756 mmHg 89%
    20:00 +29°C° 0 mm 3 mps 757 mmHg 91%
    21:00 +29°C° 0 mm 3 mps 757 mmHg 92%
    22:00 +28°C° 0 mm 3 mps 757 mmHg 92%
    23:00 +28°C° 0 mm 3 mps 757 mmHg 93%

    23 April, Tuesday

    Time Temperature Precipitation Wind Pressure Humidity
    00:00 +28°C° 0 mm 3 mps 756 mmHg 93%
    01:00 +28°C° 0 mm 3 mps 756 mmHg 93%
    02:00 +28°C° 0 mm 3 mps 755 mmHg 94%
    03:00 +28°C° 0 mm 3 mps 755 mmHg 94%
    04:00 +28°C° 0 mm 2 mps 756 mmHg 94%
    05:00 +28°C° 0 mm 2 mps 756 mmHg 94%
    06:00 +29°C° 0.1 mm 3 mps 756 mmHg 88%
    07:00 +30°C° 0.1 mm 3 mps 757 mmHg 83%
    08:00 +31°C° 0.1 mm 3 mps 758 mmHg 77%
    09:00 +33°C° 0.1 mm 3 mps 757 mmHg 73%
    10:00 +34°C° 0.1 mm 3 mps 757 mmHg 69%
    11:00 +35°C° 0.1 mm 3 mps 757 mmHg 64%
    12:00 +35°C° 0.1 mm 4 mps 756 mmHg 63%
    13:00 +35°C° 0.1 mm 4 mps 755 mmHg 62%
    14:00 +35°C° 0.1 mm 4 mps 754 mmHg 61%
    15:00 +35°C° 0 mm 4 mps 754 mmHg 64%
    16:00 +34°C° 0 mm 4 mps 754 mmHg 67%
    17:00 +33°C° 0 mm 4 mps 754 mmHg 70%
    18:00 +31°C° 0 mm 3 mps 755 mmHg 76%
    19:00 +30°C° 0 mm 3 mps 756 mmHg 81%
    20:00 +29°C° 0 mm 3 mps 756 mmHg 87%
    21:00 +29°C° 0 mm 3 mps 756 mmHg 87%
    22:00 +29°C° 0 mm 3 mps 756 mmHg 88%
    23:00 +29°C° 0 mm 3 mps 756 mmHg 89%

    24 April, Wednesday

    Time Temperature Precipitation Wind Pressure Humidity
    00:00 +29°C° 0 mm 3 mps 756 mmHg 89%
    01:00 +28°C° 0 mm 3 mps 755 mmHg 89%
    02:00 +28°C° 0 mm 3 mps 755 mmHg 90%
    03:00 +28°C° 0.1 mm 3 mps 755 mmHg 90%
    04:00 +28°C° 0.1 mm 3 mps 755 mmHg 89%
    05:00 +29°C° 0.1 mm 2 mps 756 mmHg 89%
    06:00 +29°C° 0.2 mm 2 mps 756 mmHg 87%
    07:00 +30°C° 0.2 mm 2 mps 757 mmHg 84%
    08:00 +30°C° 0.2 mm 2 mps 757 mmHg 82%
    09:00 +31°C° 0.2 mm 3 mps 757 mmHg 79%
    10:00 +31°C° 0.2 mm 3 mps 757 mmHg 76%
    11:00 +33°C° 0.2 mm 3 mps 757 mmHg 73%
    12:00 +33°C° 0.5 mm 3 mps 756 mmHg 73%
    13:00 +33°C° 0.5 mm 4 mps 755 mmHg 73%
    14:00 +33°C° 0.5 mm 4 mps 755 mmHg 73%
    15:00 +33°C° 1.6 mm 4 mps 755 mmHg 76%
    16:00 +31°C° 1.6 mm 3 mps 755 mmHg 79%
    17:00 +30°C° 1.6 mm 3 mps 755 mmHg 83%
    18:00 +29°C° 1 mm 3 mps 756 mmHg 85%
    19:00 +29°C° 1 mm 2 mps 757 mmHg 88%
    20:00 +28°C° 1 mm 2 mps 757 mmHg 91%
    21:00 +28°C° 0 mm 2 mps 757 mmHg 91%
    22:00 +28°C° 0 mm 2 mps 757 mmHg 91%
    23:00 +28°C° 0 mm 2 mps 757 mmHg 92%
    Show more